MCBH Kaneohe Bay, HI

9:21 AM HST on December 07, 2016 (GMT -1000)
Kaneohe Bay Marine Corps Air Facility

Weather History for PHNG - November, 2013

Change the Weather History Date:

Tuesday, November 5, 2013

  Actual Average Record
Temperature  
Mean Temperature 78 °F -  
Max Temperature 82 °F 79 °F 88 °F (2006)
Min Temperature 73 °F 71 °F 69 °F (2004)
Cooling Degree Days 12    
Growing Degree Days 28 (Base 50)    
Moisture  
Dew Point 68 °F    
Average Humidity 74    
Maximum Humidity 84    
Minimum Humidity 64    
Precipitation  
Precipitation 0.00 in - - ()
Sea Level Pressure  
Sea Level Pressure 29.98 in    
Wind  
Wind Speed 5 mph (NE)    
Max Wind Speed 9 mph    
Max Gust Speed -    
Visibility 7 miles    
Events Rain    
Averages and records for this station are not official NWS values.
T = Trace of Precipitation, MM = Missing Value Source: NWS Daily Summary

Daily Weather History Graph

Daily Weather History Graph

Search for Another Location

Airport or City:

Trip Planner

Search our weather history database for the weather conditions in past years. The results will help you decide how hot, cold, wet, or windy it might be!

Date:

Astronomy

Nov. 05, 2013 Rise Set
Actual Time 6:36 AM HST 5:52 PM HST
Civil Twilight 6:13 AM HST 6:15 PM HST
Nautical Twilight 5:46 AM HST 6:42 PM HST
Astronomical Twilight 5:20 AM HST 7:08 PM HST
Moon 8:53 AM HST (11/5) 8:15 PM HST (11/5)
Length of Visible Light 12h 02m
Length of Day
11h 15m
Waxing Crescent, 8% of the Moon is Illuminated
Nov 5
Waxing Crescent
Nov 9
First Quarter
Nov 17
Full
Nov 25
Last Quarter
Dec 2
New

Hourly Weather History & Observations

Time (HST) Temp. Heat Index Dew Point Humidity Pressure Visibility Wind Dir Wind Speed Gust Speed Precip Events Conditions
12:57 AM 73.4 °F - 66.0 °F 78% 30.00 in 7.0 mi Calm Calm - N/A   Mostly Cloudy
1:06 AM 73.4 °F - 66.2 °F 78% 30.01 in 6.2 mi ENE 4.6 mph - N/A   Overcast
1:57 AM 73.4 °F - 66.9 °F 80% 29.99 in 7.0 mi NE 6.9 mph - 0.00 in Rain Light Rain
2:57 AM 73.8 °F - 66.0 °F 77% 29.98 in 6.0 mi ENE 5.8 mph - 0.00 in Rain Light Rain
3:57 AM 73.8 °F - 66.0 °F 77% 29.97 in 8.0 mi Calm Calm - 0.00 in   Clear
4:57 AM 73.8 °F - 66.0 °F 77% 29.96 in 7.0 mi Calm Calm - N/A   Partly Cloudy
5:57 AM 74.3 °F - 64.9 °F 72% 29.96 in 7.0 mi Calm Calm - N/A   Scattered Clouds
6:04 AM 75.2 °F - 68.0 °F 78% 29.98 in 6.2 mi Calm Calm - N/A   Mostly Cloudy
6:57 AM 74.3 °F - 68.0 °F 81% 29.98 in 7.0 mi NNE 6.9 mph - N/A   Mostly Cloudy
7:04 AM 75.2 °F - 68.0 °F 78% 29.99 in 6.2 mi NE 4.6 mph - N/A   Partly Cloudy
7:57 AM 74.3 °F - 68.0 °F 81% 29.99 in 7.0 mi NNE 4.6 mph - N/A   Mostly Cloudy
8:57 AM 74.3 °F - 69.1 °F 84% 30.01 in 8.0 mi NNE 6.9 mph - 0.00 in   Overcast
9:57 AM 74.3 °F - 69.1 °F 84% 30.01 in 5.0 mi ENE 6.9 mph - 0.00 in Rain Light Rain
10:57 AM 80.1 °F 83.2 °F 70.0 °F 71% 30.01 in 9.0 mi ENE 8.1 mph - 0.00 in   Scattered Clouds
11:57 AM 82.4 °F 86.3 °F 70.0 °F 66% 30.00 in 8.0 mi NE 9.2 mph - N/A   Scattered Clouds
12:57 PM 82.4 °F 85.8 °F 69.1 °F 64% 29.97 in 9.0 mi NE 9.2 mph - N/A   Partly Cloudy
1:57 PM 82.4 °F 85.8 °F 69.1 °F 64% 29.95 in 8.0 mi NE 9.2 mph - N/A   Scattered Clouds
2:20 PM - - - N/A% 29.95 in 2.0 mi NE 9.2 mph - N/A   Partly Cloudy
2:28 PM 80.6 °F 83.9 °F 69.8 °F 70% 29.95 in 6.2 mi NNE 8.1 mph - N/A   Clear
2:57 PM 80.6 °F 83.6 °F 69.1 °F 68% 29.94 in 7.0 mi NNE 8.1 mph - N/A   Scattered Clouds
3:24 PM 80.6 °F 83.9 °F 69.8 °F 70% 29.95 in 6.2 mi North 8.1 mph - N/A   Mostly Cloudy
3:42 PM 80.6 °F 83.9 °F 69.8 °F 70% 29.95 in 6.0 mi NE 6.9 mph - N/A   Haze
3:57 PM 80.6 °F 83.6 °F 69.1 °F 68% 29.94 in 6.0 mi ENE 8.1 mph - N/A   Haze
4:57 PM 78.8 °F - 66.9 °F 67% 29.95 in 6.0 mi ENE 5.8 mph - N/A   Haze
5:57 PM 78.8 °F - 66.9 °F 67% 29.96 in 7.0 mi NE 5.8 mph - N/A   Partly Cloudy
6:57 PM 78.8 °F - 66.9 °F 67% 29.97 in 7.0 mi East 5.8 mph - N/A   Scattered Clouds
7:57 PM 78.8 °F - 66.9 °F 67% 29.99 in 8.0 mi NE 4.6 mph - N/A   Scattered Clouds
8:30 PM - - - N/A% - - North - - N/A   Unknown
8:57 PM 78.8 °F - 68.0 °F 69% 30.00 in 7.0 mi NE 4.6 mph - N/A   Mostly Cloudy
9:57 PM 77.0 °F - 69.1 °F 76% 29.99 in 8.0 mi NNE 4.6 mph - N/A   Overcast
10:57 PM 77.0 °F - 68.0 °F 74% 29.99 in 9.0 mi NE 5.8 mph - N/A   Mostly Cloudy
11:07 PM 77.0 °F - 68.0 °F 74% 30.01 in 6.2 mi ENE 6.9 mph - N/A   Mostly Cloudy
11:36 PM 75.2 °F - 68.0 °F 78% 30.00 in 6.2 mi NE 6.9 mph - N/A   Mostly Cloudy
11:57 PM 75.2 °F - 68.0 °F 78% 29.99 in 8.0 mi NE 3.5 mph - N/A   Partly Cloudy